Address 0xe0598dac2fb172921f8397c722f53ffc217dbab7 2

Overview

Balance:
2.00988087461379937 AVAX

AVAX Value:
$115.67 (@ $57.55/AVAX)

Token:
Txn Hash Method
Block
From
To
Value [Txn Fee]
0x55e737d330c064422adc5bdbd0da4be25a3297c438ad03aaa4efb155e4158afbSwap Tokens For ...99000622022-01-22 9:17:1319 mins ago0xe0598dac2fb172921f8397c722f53ffc217dbab7OUT Trader Joe: Router0 AVAX0.00350203728725.991266728
0xcfcba5348372d142215f557306e423b19bd353be6f12b5bd2f009ce0d1ce06efStart Game98978552022-01-22 8:04:151 hr 32 mins ago0xe0598dac2fb172921f8397c722f53ffc217dbab7OUT Crabada: Game0 AVAX0.006433087688 30.74913336
0x72c1736c86f284e241d47d7a94c2a462812c55dfa5b043f387235e078c771e1eStart Game98978422022-01-22 8:03:531 hr 32 mins ago0xe0598dac2fb172921f8397c722f53ffc217dbab7OUT Crabada: Game0 AVAX0.006616210506 31.624431228
0x5bf9427cb421d6e1bf61b0fe8c3cf956f17ba093b8546a1d389cb15be933734fStart Game98978302022-01-22 8:03:341 hr 32 mins ago0xe0598dac2fb172921f8397c722f53ffc217dbab7OUT Crabada: Game0 AVAX0.006206122642 29.664276632
0x00be2857a83e0c77b76fd37601f1223eebe87702f034393ed24c701c80d053faStart Game98978182022-01-22 8:03:091 hr 33 mins ago0xe0598dac2fb172921f8397c722f53ffc217dbab7OUT Crabada: Game0 AVAX0.006497642646 31.057695766
0xbeede17d5306c77eb4a9b0fa7b037a907dd3ad0d68670c0f6b63398b636a8af9Start Game98978042022-01-22 8:02:441 hr 33 mins ago0xe0598dac2fb172921f8397c722f53ffc217dbab7OUT Crabada: Game0 AVAX0.006685748943 31.956813873
0xf6816c9907b2a24d3b5968c49dc3c3556c039deae857b5c99264023b6d78286dStart Game98977912022-01-22 8:02:191 hr 34 mins ago0xe0598dac2fb172921f8397c722f53ffc217dbab7OUT Crabada: Game0 AVAX0.006675195546 31.906370315
0x18b1e0bcf57d3c8b25c3e8dbbb281940dcc9299b938572c3447ad324db989427Close Game98977712022-01-22 8:01:431 hr 34 mins ago0xe0598dac2fb172921f8397c722f53ffc217dbab7OUT Crabada: Game0 AVAX0.004174528381 36.680125308
0x7ddbda729083c3ace4eeb129d76b8b7b8888c8b131010c6d21cd0e82b191a0c6Close Game98977632022-01-22 8:01:251 hr 35 mins ago0xe0598dac2fb172921f8397c722f53ffc217dbab7OUT Crabada: Game0 AVAX0.004525066424 39.760180866
0x17726ae3dbec2a3e319c9e28635dd0de718ad90924a5e73992ae1a2998269496Close Game98977532022-01-22 8:01:111 hr 35 mins ago0xe0598dac2fb172921f8397c722f53ffc217dbab7OUT Crabada: Game0 AVAX0.003153392442 27.707759867
0x9f37da00849a1c8d221e9af3d9ff8522fb624d2ad30bc9c367eff4661c466533Close Game98977482022-01-22 8:00:591 hr 35 mins ago0xe0598dac2fb172921f8397c722f53ffc217dbab7OUT Crabada: Game0 AVAX0.003209934147 28.204572113
0xee4f843acaef47292074f2ae208e6f94cf95dae09ebbbfabaf5f7651b0584387Close Game98977432022-01-22 8:00:481 hr 35 mins ago0xe0598dac2fb172921f8397c722f53ffc217dbab7OUT Crabada: Game0 AVAX0.003357941245 29.505058874
0xf096a2d79c92ef25db19b1893442cfc756708ac2886767be540cb4a1486172f2Close Game98977352022-01-22 8:00:361 hr 35 mins ago0xe0598dac2fb172921f8397c722f53ffc217dbab7OUT Crabada: Game0 AVAX0.003060432603 28.324750143
0x782128b57f93abc6d2c23f5cab0147e195ffc21be896796eaf7ab53f52ef5d6cStart Game98821112022-01-21 23:23:4210 hrs 12 mins ago0xe0598dac2fb172921f8397c722f53ffc217dbab7OUT Crabada: Game0 AVAX0.023885294847 114.16790073
0xe015f8321a2b4e45ea0e2a5e99696885802c7ea009bd80e102f6e3b4169012e6Start Game98820982022-01-21 23:23:1610 hrs 13 mins ago0xe0598dac2fb172921f8397c722f53ffc217dbab7OUT Crabada: Game0 AVAX0.024426943477 116.756894812
0x38446720b4be7fda1584c5db9beba680048b27e5673d8208ad926fa426c497f1Start Game98820872022-01-21 23:22:5310 hrs 13 mins ago0xe0598dac2fb172921f8397c722f53ffc217dbab7OUT Crabada: Game0 AVAX0.023593462943 112.772990761
0xecf0bd02f67be663c79a478e00c4391e0f7110f2d5c66e45fcd97f15868c250cStart Game98820772022-01-21 23:22:3410 hrs 13 mins ago0xe0598dac2fb172921f8397c722f53ffc217dbab7OUT Crabada: Game0 AVAX0.023712423045 113.341601083
0xb1847f1092a4808205dfc36c686b8024d6463c4a3d405df106bacc39db50b7e3Start Game98820632022-01-21 23:22:0310 hrs 14 mins ago0xe0598dac2fb172921f8397c722f53ffc217dbab7OUT Crabada: Game0 AVAX0.023929470518 114.379053394
0x4bc2cef2756a6cb2565e82f593e9d11f5a94f618289295307528ce6f59fc13ffStart Game98820512022-01-21 23:21:3910 hrs 14 mins ago0xe0598dac2fb172921f8397c722f53ffc217dbab7OUT Crabada: Game0 AVAX0.024590771804 117.53996809
0x8a49059486ea264f965679d0768a9d87fc6694bc001876a748444a4f31ebdd62Close Game98820392022-01-21 23:21:1510 hrs 15 mins ago0xe0598dac2fb172921f8397c722f53ffc217dbab7OUT Crabada: Game0 AVAX0.013204984766 116.027596818
0x3c3f6d0d8336601be5d5c525301a6d8d89efece44c1d52653258f9ca93dc0d79Close Game98820302022-01-21 23:20:5710 hrs 15 mins ago0xe0598dac2fb172921f8397c722f53ffc217dbab7OUT Crabada: Game0 AVAX0.013395957291 117.70560581
0x6deee015329ebe8769aa7605bbb2855dce132c390394900712c8dd2a0b24063fClose Game98820202022-01-21 23:20:3510 hrs 15 mins ago0xe0598dac2fb172921f8397c722f53ffc217dbab7OUT Crabada: Game0 AVAX0.013363237528 117.418108658
0x18b57006a8a24f03afe885fca9f6deccae4dfbdab567525a5854a751c2fe33c9Close Game98820102022-01-21 23:20:1610 hrs 16 mins ago0xe0598dac2fb172921f8397c722f53ffc217dbab7OUT Crabada: Game0 AVAX0.013279999578 116.686725814
0xa2734f727390b51fc8f886dc1a8401c5bc6a1e3f08c8e15a3489c95c028dfaadClose Game98819762022-01-21 23:19:0610 hrs 17 mins ago0xe0598dac2fb172921f8397c722f53ffc217dbab7OUT Crabada: Game0 AVAX0.013807289254 121.319836344
0x366514e5e66df44929830bd7d5813c0a0340bdb941723a81ceaee59f5edca4b6Close Game98819652022-01-21 23:18:4410 hrs 17 mins ago0xe0598dac2fb172921f8397c722f53ffc217dbab7OUT Crabada: Game0 AVAX0.013814709903 121.385039003
[ Download CSV Export 
Latest 9 internal transactions
Parent Txn Hash Block From To Value
0x55e737d330c064422adc5bdbd0da4be25a3297c438ad03aaa4efb155e4158afb99000622022-01-22 9:17:1319 mins ago Trader Joe: Router0xe0598dac2fb172921f8397c722f53ffc217dbab71.9 AVAX
0xf9cd14f2912e61b67577574b4c49e1463a24b60627bc39dd3fb3b13baaad149596953412022-01-17 15:17:504 days 18 hrs ago 0x36ff7b0e85e352f436a22eeb62cf1b3d837bb72b0xe0598dac2fb172921f8397c722f53ffc217dbab70.59925808125 AVAX
0xbb8691133c48c74dd6adde54ed9ef7df169ca36cd95c4098235d36f9a172321196885802022-01-17 11:32:164 days 22 hrs ago Trader Joe: Router0xe0598dac2fb172921f8397c722f53ffc217dbab71.3 AVAX
0xab6c3d489cf8b1874d899eb798f8380a28789414f5a11513214e776b9460ab6c96213462022-01-15 22:51:206 days 10 hrs ago Trader Joe: Router0xe0598dac2fb172921f8397c722f53ffc217dbab70.611 AVAX
0x6380b2ea8d833c95efc7c3f7031364da941abeaee01d005e43ece3493281e08994314582022-01-11 14:55:1010 days 18 hrs ago 0x36ff7b0e85e352f436a22eeb62cf1b3d837bb72b0xe0598dac2fb172921f8397c722f53ffc217dbab70.26508061875 AVAX
0x7a2acab2b0da7047d24e6188088752274924b5322f8d66ef7909c1f162727e4d93385762022-01-09 11:32:4212 days 22 hrs ago Trader Joe: Router0xe0598dac2fb172921f8397c722f53ffc217dbab72.492608663672418881 AVAX
0xe890af257b707648f44def6aad6a0850fe6ead74b5278eb23d1d154f3389cadb90872012022-01-03 15:39:0218 days 17 hrs ago 0xed08e227644bae137daff340d755e668f835f1210xe0598dac2fb172921f8397c722f53ffc217dbab70.2487486375 AVAX
0x9c8652c667b48ee3a836e82a1f131e3f11668fdcf631cd63accc40addc72010987875212021-12-27 15:31:5125 days 18 hrs ago 0xed08e227644bae137daff340d755e668f835f1210xe0598dac2fb172921f8397c722f53ffc217dbab70.457295475 AVAX
0x2575c78c934157a07e0db78afc860640a4beccfa8d071d830248ec2c1c0b23eb84886752021-12-20 14:59:0732 days 18 hrs ago 0xed08e227644bae137daff340d755e668f835f1210xe0598dac2fb172921f8397c722f53ffc217dbab70.185933325 AVAX
[ Download CSV Export 
Loading

Contract Name:
0

Compiler Version
0

Optimization Enabled:
0

Other Settings:
-NA-
Block Transaction Gas Used Reward
Age Block Fee Address BC Fee Address Voting Power Jailed Incoming
Block Uncle Number Difficulty Gas Used Reward
Loading
Make sure to use the "Vote Down" button for any spammy posts, and the "Vote Up" for interesting conversations.